Location: Feigenhofen
(48.4939°N, 10.7793°E)
Time: 05:10:07
(UTC+00:00)

Cosmos 1455 - Pass Details

Date: 26 May 2022
Orbit: 492 x 515 km, 82.5° (Epoch: 24 June)

Event Time Altitude Azimuth Distance (km) Brightness Sun altitude
Rises 00:45:24 0° 356° (N) 2,587 6.9 -17.5°
Reaches altitude 10° 00:47:36 10° 4° (N) 1,698 5.9 -17.3°
Maximum altitude 00:51:08 41° 76° (ENE) 731 3.2 -17.1°
Enters shadow 00:53:46 16° 141° (SE) 1,351 4.0 -16.9°
